Regional Weather Roundup
Issued by NWS Kansas City/Pleasant Hill, MO

Home | Current Version | Previous Version | Text Only | Print | Product List | Glossary On
Versions: 1 2 3 4 5 6 7 8 9 10 11 12 13 14 15 16 17 18 19 20 21 22 23 24 25 26 27 28 29 30 31 32 33 34 35 36 37 38 39 40 41 42 43 44 45 46 47 48 49 50
800
ASUS43 KEAX 122110
RWREAX

WEATHER ROUNDUP FOR EASTERN KANSAS AND NORTHWEST MISSOURI
NATIONAL WEATHER SERVICE KANSAS CITY/PLEASANT HILL MO
300 PM CST FRI FEB 12 2016

KSZ040-057-103>105-MOZ028-029-037-043-122200-
...KANSAS CITY METROPOLITAN AREA...

CITY           SKY/WX    TMP DP  RH WIND       PRES   REMARKS
K.C. INTL      MOSUNNY   35  14  42 N15G23    30.44S WCI  25
K.C. DOWNTOWN  SUNNY     38  15  39 N15G24    30.44S WCI  29
LEES SUMMIT    SUNNY     35  14  42 N22G29    30.42S WCI  23
OLATHE - IXD   SUNNY     37  16  42 N15G24    30.43F WCI  28
OLATHE - OJC   SUNNY     37  14  38 N17       30.42S WCI  27
LAWRENCE       SUNNY     37  16  42 N14G25    30.45S WCI  28

$$

MOZ001>008-011>017-020>025-030>033-038>040-044>046-053-054-122200-
...NORTHERN AND CENTRAL MISSOURI...

CITY           SKY/WX    TMP DP  RH WIND       PRES   REMARKS
ST. JOSEPH     SUNNY     33  11  39 N16G26    30.48S WCI  23
MOSBY          CLEAR     34  14  44 NW13G22   30.45R WCI  25
WARRENSBURG    SUNNY     36  16  44 NW17G23   30.42R WCI  25
WHITEMAN AFB   MOSUNNY   36  14  39 N20G25    30.40R WCI  26
CLINTON          N/A     41  23  48 NW21G26   30.40R WCI  32
SEDALIA        SUNNY     37  15  40 N20G26    30.41R WCI  27
WARSAW         NOT AVBL
CHILLICOTHE      N/A     33  10  38 N9G23     30.45R WCI  25
KIRKSVILLE     SUNNY     27  10  49 NW15G21   30.41R WCI  15

$$

MOZ041-047>049-056>058-063>065-088>090-097-122200-
...EASTERN AND SOUTHERN MISSOURI...

CITY           SKY/WX    TMP DP  RH WIND       PRES   REMARKS
ST. LOUIS INTL PTSUNNY   30  19  63 N17G24    30.33R WCI  18
SPIRIT OF STL  PTSUNNY   32  19  59 NW15      30.34R WCI  22
COLUMBIA       SUNNY     34  16  47 NW21      30.36R WCI  22
JEFFERSON CITY SUNNY     36  15  42 NW20G25   30.37R WCI  25
ROLLA          SUNNY     37  19  48 NW15G24   30.30R WCI  28
OSAGE BEACH    MOSUNNY   41  19  42 NW9G16    30.35R
SPRINGFIELD    SUNNY     44  22  41 N16       30.32S
BRANSON        MOSUNNY   48  23  37 NW15G23   30.31S
JOPLIN         SUNNY     45  26  47 N10       30.38S
WEST PLAINS    SUNNY     48  21  34 N13G22    30.28R

$$

IAZ060-094-KSZ022-034>040-054-083-096-NEZ052-066-093-122200-
...KANSAS...SOUTHEAST NEBRASKA AND IOWA...

CITY           SKY/WX    TMP DP  RH WIND       PRES   REMARKS
TOPEKA         SUNNY     39  17  41 N12G25    30.46S WCI  32
MANHATTAN      CLOUDY    37  23  56 N12       30.47F WCI  29
EMPORIA        MOSUNNY   40  23  50 N18G25    30.42F WCI  31
CHANUTE        SUNNY     45  26  47 N13G24    30.40S
WICHITA        PTSUNNY   44  26  49 N17G23    30.41F
OMAHA          MOSUNNY   22  11  62 NW22      30.53R WCI   6
LINCOLN        MOSUNNY   26  15  63 N17       30.54R WCI  13
FALLS CITY     MOSUNNY   30  13  49 N10G21    30.49R WCI  21
LAMONI         SUNNY     22   3  44 N16G26    30.45R WCI   8
DES MOINES     MOSUNNY   18   2  49 NW21      30.48R WCI   1

$$





USA.gov is the U.S. government's official web portal to all federal, state and local government web resources and services.